Time,TemperatureF,DewpointF,PressureIn,WindDirection,WindDirectionDegrees,WindSpeedMPH,WindSpeedGustMPH,Humidity,HourlyPrecipIn,Conditions,Clouds,dailyrainin,SoftwareType,DateUTC
2013-03-09 00:00:00,32.9,23.2,30.10,WSW,252,7.0,13.0,67,0.00,,---,0.00,VWS V14.01,2013-03-09 05:00:00,
2013-03-09 00:05:00,32.8,23.1,30.10,WSW,238,11.0,11.0,67,0.00,,---,0.00,VWS V14.01,2013-03-09 05:05:00,
2013-03-09 00:10:00,32.6,22.9,30.09,WSW,255,4.0,11.0,67,0.00,,---,0.00,VWS V14.01,2013-03-09 05:10:00,
2013-03-09 00:15:00,32.4,23.0,30.10,SW,235,12.0,13.0,68,0.00,,---,0.00,VWS V14.01,2013-03-09 05:15:00,
2013-03-09 00:20:00,32.4,23.0,30.10,West,271,6.0,13.0,68,0.00,,---,0.00,VWS V14.01,2013-03-09 05:20:00,
2013-03-09 00:25:00,32.4,23.0,30.10,WSW,251,7.0,14.0,68,0.00,,---,0.00,VWS V14.01,2013-03-09 05:25:00,
2013-03-09 00:30:00,32.3,23.3,30.10,WNW,296,4.0,15.0,69,0.00,,---,0.00,VWS V14.01,2013-03-09 05:30:00,
2013-03-09 00:35:00,32.2,22.8,30.10,West,259,7.0,10.0,68,0.00,,---,0.00,VWS V14.01,2013-03-09 05:35:00,
2013-03-09 00:40:00,32.2,23.2,30.10,West,266,9.0,17.0,69,0.00,,---,0.00,VWS V14.01,2013-03-09 05:40:00,
2013-03-09 00:45:00,32.0,23.0,30.10,West,261,4.0,17.0,69,0.00,,---,0.00,VWS V14.01,2013-03-09 05:45:00,
2013-03-09 00:50:00,32.0,23.0,30.11,SW,235,6.0,17.0,69,0.00,,---,0.00,VWS V14.01,2013-03-09 05:50:00,
2013-03-09 00:55:00,31.9,23.2,30.10,WSW,256,9.0,17.0,70,0.00,,---,0.00,VWS V14.01,2013-03-09 05:55:00,
2013-03-09 01:00:00,32.0,23.0,30.10,West,267,12.0,22.0,69,0.00,,---,0.00,VWS V14.01,2013-03-09 06:00:00,
2013-03-09 01:05:00,31.8,23.1,30.10,WNW,296,14.0,16.0,70,0.00,,---,0.00,VWS V14.01,2013-03-09 06:05:00,
2013-03-09 01:10:00,31.8,23.1,30.10,West,272,7.0,21.0,70,0.00,,---,0.00,VWS V14.01,2013-03-09 06:10:00,
2013-03-09 01:15:00,31.8,22.8,30.10,WSW,258,12.0,21.0,69,0.00,,---,0.00,VWS V14.01,2013-03-09 06:15:00,
2013-03-09 01:20:00,31.6,23.0,30.10,West,274,8.0,21.0,70,0.00,,---,0.00,VWS V14.01,2013-03-09 06:20:00,
2013-03-09 01:25:00,31.6,23.0,30.10,West,273,12.0,21.0,70,0.00,,---,0.00,VWS V14.01,2013-03-09 06:25:00,
2013-03-09 01:30:00,31.5,22.5,30.10,West,269,8.0,21.0,69,0.00,,---,0.00,VWS V14.01,2013-03-09 06:30:00,
2013-03-09 01:35:00,31.4,22.8,30.10,West,268,11.0,14.0,70,0.00,,---,0.00,VWS V14.01,2013-03-09 06:35:00,
2013-03-09 01:40:00,31.4,22.8,30.10,NW,320,6.0,19.0,70,0.00,,---,0.00,VWS V14.01,2013-03-09 06:40:00,
2013-03-09 01:45:00,31.3,22.7,30.10,WNW,298,9.0,19.0,70,0.00,,---,0.00,VWS V14.01,2013-03-09 06:45:00,
2013-03-09 01:50:00,31.3,22.7,30.09,West,281,9.0,19.0,70,0.00,,---,0.00,VWS V14.01,2013-03-09 06:50:00,
2013-03-09 01:55:00,31.3,22.7,30.09,WSW,252,7.0,19.0,70,0.00,,---,0.00,VWS V14.01,2013-03-09 06:55:00,
2013-03-09 02:00:00,31.2,22.6,30.09,West,262,8.0,19.0,70,0.00,,---,0.00,VWS V14.01,2013-03-09 07:00:00,
2013-03-09 02:05:00,31.1,22.8,30.09,WNW,290,12.0,15.0,71,0.00,,---,0.00,VWS V14.01,2013-03-09 07:05:00,
2013-03-09 02:10:00,31.0,22.7,30.09,West,281,6.0,15.0,71,0.00,,---,0.00,VWS V14.01,2013-03-09 07:10:00,
2013-03-09 02:15:00,31.0,22.7,30.10,West,271,11.0,18.0,71,0.00,,---,0.00,VWS V14.01,2013-03-09 07:15:00,
2013-03-09 02:20:00,30.9,22.6,30.10,West,259,5.0,18.0,71,0.00,,---,0.00,VWS V14.01,2013-03-09 07:20:00,
2013-03-09 02:25:00,30.7,22.8,30.10,WSW,257,3.0,18.0,72,0.00,,---,0.00,VWS V14.01,2013-03-09 07:25:00,
2013-03-09 02:30:00,30.7,22.8,30.10,WNW,302,6.0,18.0,72,0.00,,---,0.00,VWS V14.01,2013-03-09 07:30:00,
2013-03-09 02:35:00,30.6,22.7,30.10,West,264,1.0,3.0,72,0.00,,---,0.00,VWS V14.01,2013-03-09 07:35:00,
2013-03-09 02:40:00,30.4,22.5,30.10,WSW,256,3.0,6.0,72,0.00,,---,0.00,VWS V14.01,2013-03-09 07:40:00,
2013-03-09 02:45:00,30.2,22.6,30.10,WSW,256,3.0,6.0,73,0.00,,---,0.00,VWS V14.01,2013-03-09 07:45:00,
2013-03-09 02:50:00,30.1,22.5,30.10,WSW,252,7.0,12.0,73,0.00,,---,0.00,VWS V14.01,2013-03-09 07:50:00,
2013-03-09 02:55:00,30.1,22.5,30.10,West,263,3.0,12.0,73,0.00,,---,0.00,VWS V14.01,2013-03-09 07:55:00,
2013-03-09 03:00:00,29.9,22.6,30.10,SW,231,5.0,12.0,74,0.00,,---,0.00,VWS V14.01,2013-03-09 08:00:00,
2013-03-09 03:05:00,29.8,22.5,30.10,WSW,245,5.0,7.0,74,0.00,,---,0.00,VWS V14.01,2013-03-09 08:05:00,
2013-03-09 03:10:00,29.8,22.5,30.10,WNW,288,4.0,8.0,74,0.00,,---,0.00,VWS V14.01,2013-03-09 08:10:00,
2013-03-09 03:15:00,29.8,22.9,30.10,SW,221,12.0,12.0,75,0.00,,---,0.00,VWS V14.01,2013-03-09 08:15:00,
2013-03-09 03:20:00,29.9,22.6,30.10,SW,231,7.0,15.0,74,0.00,,---,0.00,VWS V14.01,2013-03-09 08:20:00,
2013-03-09 03:25:00,30.0,22.7,30.10,West,281,5.0,15.0,74,0.00,,---,0.00,VWS V14.01,2013-03-09 08:25:00,
2013-03-09 03:30:00,29.8,22.5,30.10,West,271,10.0,15.0,74,0.00,,---,0.00,VWS V14.01,2013-03-09 08:30:00,
2013-03-09 03:35:00,29.8,22.9,30.10,SW,220,6.0,7.0,75,0.00,,---,0.00,VWS V14.01,2013-03-09 08:35:00,
2013-03-09 03:40:00,29.7,22.8,30.10,WNW,288,3.0,16.0,75,0.00,,---,0.00,VWS V14.01,2013-03-09 08:40:00,
2013-03-09 03:45:00,29.8,22.9,30.10,West,269,3.0,16.0,75,0.00,,---,0.00,VWS V14.01,2013-03-09 08:45:00,
2013-03-09 03:50:00,29.6,22.7,30.10,West,262,5.0,16.0,75,0.00,,---,0.00,VWS V14.01,2013-03-09 08:50:00,
2013-03-09 03:55:00,29.3,22.7,30.10,WSW,247,2.0,16.0,76,0.00,,---,0.00,VWS V14.01,2013-03-09 08:55:00,
2013-03-09 04:00:00,29.2,22.6,30.10,SW,229,1.0,16.0,76,0.00,,---,0.00,VWS V14.01,2013-03-09 09:00:00,
2013-03-09 04:05:00,29.2,22.6,30.10,West,263,5.0,8.0,76,0.00,,---,0.00,VWS V14.01,2013-03-09 09:05:00,
2013-03-09 04:10:00,29.1,22.8,30.11,WSW,242,5.0,8.0,77,0.00,,---,0.00,VWS V14.01,2013-03-09 09:10:00,
2013-03-09 04:15:00,29.1,22.8,30.11,West,271,4.0,9.0,77,0.00,,---,0.00,VWS V14.01,2013-03-09 09:15:00,
2013-03-09 04:20:00,29.0,22.7,30.11,SSW,197,6.0,10.0,77,0.00,,---,0.00,VWS V14.01,2013-03-09 09:20:00,
2013-03-09 04:25:00,29.1,22.8,30.11,West,268,8.0,12.0,77,0.00,,---,0.00,VWS V14.01,2013-03-09 09:25:00,
2013-03-09 04:30:00,29.0,22.7,30.11,West,279,4.0,12.0,77,0.00,,---,0.00,VWS V14.01,2013-03-09 09:30:00,
2013-03-09 04:35:00,29.1,22.8,30.11,West,263,4.0,11.0,77,0.00,,---,0.00,VWS V14.01,2013-03-09 09:35:00,
2013-03-09 04:40:00,28.9,22.6,30.11,West,268,3.0,11.0,77,0.00,,---,0.00,VWS V14.01,2013-03-09 09:40:00,
2013-03-09 04:45:00,28.7,22.4,30.11,West,262,3.0,11.0,77,0.00,,---,0.00,VWS V14.01,2013-03-09 09:45:00,
2013-03-09 04:50:00,28.6,22.6,30.11,West,259,5.0,11.0,78,0.00,,---,0.00,VWS V14.01,2013-03-09 09:50:00,
2013-03-09 04:55:00,28.7,22.7,30.11,WSW,257,6.0,17.0,78,0.00,,---,0.00,VWS V14.01,2013-03-09 09:55:00,
2013-03-09 05:00:00,28.8,22.8,30.12,WNW,292,6.0,17.0,78,0.00,,---,0.00,VWS V14.01,2013-03-09 10:00:00,
2013-03-09 05:05:00,28.8,22.8,30.11,West,271,9.0,13.0,78,0.00,,---,0.00,VWS V14.01,2013-03-09 10:05:00,
2013-03-09 05:10:00,28.9,22.6,30.11,West,259,3.0,13.0,77,0.00,,---,0.00,VWS V14.01,2013-03-09 10:10:00,
2013-03-09 05:15:00,28.8,22.5,30.11,West,259,6.0,13.0,77,0.00,,---,0.00,VWS V14.01,2013-03-09 10:15:00,
2013-03-09 05:20:00,28.7,22.7,30.12,West,267,11.0,13.0,78,0.00,,---,0.00,VWS V14.01,2013-03-09 10:20:00,
2013-03-09 05:25:00,28.6,22.6,30.12,NW,309,6.0,13.0,78,0.00,,---,0.00,VWS V14.01,2013-03-09 10:25:00,
2013-03-09 05:30:00,28.5,22.5,30.12,WSW,253,4.0,15.0,78,0.00,,---,0.00,VWS V14.01,2013-03-09 10:30:00,
2013-03-09 05:35:00,28.5,22.5,30.12,WNW,294,9.0,13.0,78,0.00,,---,0.00,VWS V14.01,2013-03-09 10:35:00,
2013-03-09 05:40:00,28.6,22.6,30.12,WSW,254,13.0,16.0,78,0.00,,---,0.00,VWS V14.01,2013-03-09 10:40:00,
2013-03-09 05:45:00,28.6,22.6,30.13,West,259,6.0,16.0,78,0.00,,---,0.00,VWS V14.01,2013-03-09 10:45:00,
2013-03-09 05:50:00,28.5,22.5,30.13,West,264,7.0,16.0,78,0.00,,---,0.00,VWS V14.01,2013-03-09 10:50:00,
2013-03-09 05:55:00,28.5,22.5,30.14,WSW,241,6.0,16.0,78,0.00,,---,0.00,VWS V14.01,2013-03-09 10:55:00,
2013-03-09 06:00:00,28.5,22.5,30.14,West,281,9.0,16.0,78,0.00,,---,0.00,VWS V14.01,2013-03-09 11:00:00,
2013-03-09 06:05:00,28.3,22.6,30.14,West,273,5.0,12.0,79,0.00,,---,0.00,VWS V14.01,2013-03-09 11:05:00,
2013-03-09 06:10:00,28.3,22.6,30.15,WSW,242,6.0,12.0,79,0.00,,---,0.00,VWS V14.01,2013-03-09 11:10:00,
2013-03-09 06:15:00,28.3,22.6,30.14,WSW,250,10.0,17.0,79,0.00,,---,0.00,VWS V14.01,2013-03-09 11:15:00,
2013-03-09 06:20:00,28.3,22.6,30.14,West,263,7.0,17.0,79,0.00,,---,0.00,VWS V14.01,2013-03-09 11:20:00,
2013-03-09 06:25:00,28.3,22.6,30.15,WSW,247,10.0,17.0,79,0.00,,---,0.00,VWS V14.01,2013-03-09 11:25:00,
2013-03-09 06:30:00,28.2,22.5,30.15,WSW,253,10.0,17.0,79,0.00,,---,0.00,VWS V14.01,2013-03-09 11:30:00,
2013-03-09 06:35:00,28.2,22.5,30.15,WSW,250,8.0,14.0,79,0.00,,---,0.00,VWS V14.01,2013-03-09 11:35:00,
2013-03-09 06:40:00,28.2,22.5,30.15,WSW,248,3.0,14.0,79,0.00,,---,0.00,VWS V14.01,2013-03-09 11:40:00,
2013-03-09 06:45:00,28.2,22.5,30.15,WNW,294,7.0,16.0,79,0.00,,---,0.00,VWS V14.01,2013-03-09 11:45:00,
2013-03-09 06:50:00,28.2,22.5,30.16,WSW,250,7.0,16.0,79,0.00,,---,0.00,VWS V14.01,2013-03-09 11:50:00,
2013-03-09 06:55:00,28.3,22.6,30.16,SW,221,8.0,16.0,79,0.00,,---,0.00,VWS V14.01,2013-03-09 11:55:00,
2013-03-09 07:00:00,28.4,22.7,30.16,WSW,247,14.0,16.0,79,0.00,,---,0.00,VWS V14.01,2013-03-09 12:00:00,
2013-03-09 07:05:00,28.4,22.7,30.16,SW,231,7.0,11.0,79,0.00,,---,0.00,VWS V14.01,2013-03-09 12:05:00,
2013-03-09 07:10:00,28.6,22.6,30.16,WSW,258,10.0,15.0,78,0.00,,---,0.00,VWS V14.01,2013-03-09 12:10:00,
2013-03-09 07:15:00,28.8,22.8,30.16,WNW,287,3.0,15.0,78,0.00,,---,0.00,VWS V14.01,2013-03-09 12:15:00,
2013-03-09 07:20:00,29.1,23.1,30.16,WSW,242,9.0,15.0,78,0.00,,---,0.00,VWS V14.01,2013-03-09 12:20:00,
2013-03-09 07:25:00,29.3,23.0,30.16,WSW,242,4.0,15.0,77,0.00,,---,0.00,VWS V14.01,2013-03-09 12:25:00,
2013-03-09 07:30:00,29.5,23.2,30.17,West,280,7.0,15.0,77,0.00,,---,0.00,VWS V14.01,2013-03-09 12:30:00,
2013-03-09 07:35:00,29.8,23.5,30.17,West,263,14.0,16.0,77,0.00,,---,0.00,VWS V14.01,2013-03-09 12:35:00,
2013-03-09 07:40:00,30.3,23.3,30.17,West,263,7.0,16.0,75,0.00,,---,0.00,VWS V14.01,2013-03-09 12:40:00,
2013-03-09 07:45:00,30.6,23.3,30.17,WNW,288,7.0,18.0,74,0.00,,---,0.00,VWS V14.01,2013-03-09 12:45:00,
2013-03-09 07:50:00,30.8,23.2,30.17,WSW,255,6.0,18.0,73,0.00,,---,0.00,VWS V14.01,2013-03-09 12:50:00,
2013-03-09 07:55:00,31.3,23.7,30.17,WSW,256,8.0,18.0,73,0.00,,---,0.00,VWS V14.01,2013-03-09 12:55:00,
2013-03-09 08:00:00,31.7,23.4,30.17,WSW,241,6.0,18.0,71,0.00,,---,0.00,VWS V14.01,2013-03-09 13:00:00,
2013-03-09 08:05:00,31.7,23.4,30.17,West,279,4.0,12.0,71,0.00,,---,0.00,VWS V14.01,2013-03-09 13:05:00,
2013-03-09 08:10:00,31.9,23.2,30.18,West,273,8.0,16.0,70,0.00,,---,0.00,VWS V14.01,2013-03-09 13:10:00,
2013-03-09 08:15:00,32.1,23.4,30.17,West,269,15.0,20.0,70,0.00,,---,0.00,VWS V14.01,2013-03-09 13:15:00,
2013-03-09 08:20:00,32.2,23.5,30.18,West,259,10.0,20.0,70,0.00,,---,0.00,VWS V14.01,2013-03-09 13:20:00,
2013-03-09 08:25:00,32.3,23.3,30.18,WSW,246,12.0,20.0,69,0.00,,---,0.00,VWS V14.01,2013-03-09 13:25:00,
2013-03-09 08:30:00,32.6,23.2,30.18,WSW,241,14.0,20.0,68,0.00,,---,0.00,VWS V14.01,2013-03-09 13:30:00,
2013-03-09 08:35:00,32.7,23.3,30.18,West,263,13.0,14.0,68,0.00,,---,0.00,VWS V14.01,2013-03-09 13:35:00,
2013-03-09 08:40:00,33.1,23.7,30.18,SSW,196,10.0,19.0,68,0.00,,---,0.00,VWS V14.01,2013-03-09 13:40:00,
2013-03-09 08:45:00,33.7,23.9,30.18,SW,234,10.0,19.0,67,0.00,,---,0.00,VWS V14.01,2013-03-09 13:45:00,
2013-03-09 08:50:00,34.1,24.0,30.18,West,263,4.0,19.0,66,0.00,,---,0.00,VWS V14.01,2013-03-09 13:50:00,
2013-03-09 08:55:00,34.6,24.1,30.18,WSW,248,5.0,19.0,65,0.00,,---,0.00,VWS V14.01,2013-03-09 13:55:00,
2013-03-09 09:00:00,34.5,24.0,30.18,West,276,9.0,19.0,65,0.00,,---,0.00,VWS V14.01,2013-03-09 14:00:00,
2013-03-09 09:05:00,35.3,24.4,30.18,WSW,252,10.0,12.0,64,0.00,,---,0.00,VWS V14.01,2013-03-09 14:05:00,
2013-03-09 09:10:00,35.3,23.6,30.18,WSW,250,8.0,17.0,62,0.00,,---,0.00,VWS V14.01,2013-03-09 14:10:00,
2013-03-09 09:15:00,35.0,24.1,30.18,WNW,282,9.0,17.0,64,0.00,,---,0.00,VWS V14.01,2013-03-09 14:15:00,
2013-03-09 09:20:00,35.0,23.7,30.18,West,268,7.0,17.0,63,0.00,,---,0.00,VWS V14.01,2013-03-09 14:20:00,
2013-03-09 09:25:00,35.3,24.0,30.18,West,273,7.0,17.0,63,0.00,,---,0.00,VWS V14.01,2013-03-09 14:25:00,
2013-03-09 09:30:00,35.7,24.0,30.18,West,271,7.0,17.0,62,0.00,,---,0.00,VWS V14.01,2013-03-09 14:30:00,
2013-03-09 09:35:00,36.3,24.1,30.18,WSW,251,6.0,6.0,61,0.00,,---,0.00,VWS V14.01,2013-03-09 14:35:00,
2013-03-09 09:40:00,35.9,23.8,30.18,NW,316,3.0,19.0,61,0.00,,---,0.00,VWS V14.01,2013-03-09 14:40:00,
2013-03-09 09:45:00,36.0,23.9,30.18,West,259,10.0,19.0,61,0.00,,---,0.00,VWS V14.01,2013-03-09 14:45:00,
2013-03-09 09:50:00,36.1,24.0,30.18,WNW,301,4.0,19.0,61,0.00,,---,0.00,VWS V14.01,2013-03-09 14:50:00,
2013-03-09 09:55:00,36.8,24.2,30.18,WNW,288,5.0,19.0,60,0.00,,---,0.00,VWS V14.01,2013-03-09 14:55:00,
2013-03-09 10:00:00,37.2,24.2,30.18,West,276,2.0,19.0,59,0.00,,---,0.00,VWS V14.01,2013-03-09 15:00:00,
2013-03-09 10:05:00,37.9,24.9,30.18,West,263,7.0,7.0,59,0.00,,---,0.00,VWS V14.01,2013-03-09 15:05:00,
2013-03-09 10:10:00,37.9,24.5,30.18,West,265,10.0,14.0,58,0.00,,---,0.00,VWS V14.01,2013-03-09 15:10:00,
2013-03-09 10:15:00,37.5,24.1,30.18,West,261,7.0,14.0,58,0.00,,---,0.00,VWS V14.01,2013-03-09 15:15:00,
2013-03-09 10:20:00,37.7,24.3,30.18,WNW,287,4.0,14.0,58,0.00,,---,0.00,VWS V14.01,2013-03-09 15:20:00,
2013-03-09 10:25:00,37.4,24.0,30.18,WSW,239,7.0,14.0,58,0.00,,---,0.00,VWS V14.01,2013-03-09 15:25:00,
2013-03-09 10:30:00,37.6,24.2,30.18,WSW,253,3.0,14.0,58,0.00,,---,0.00,VWS V14.01,2013-03-09 15:30:00,
2013-03-09 10:35:00,38.4,24.5,30.18,SW,232,5.0,12.0,57,0.00,,---,0.00,VWS V14.01,2013-03-09 15:35:00,
2013-03-09 10:40:00,38.7,23.9,30.18,West,271,6.0,12.0,55,0.00,,---,0.00,VWS V14.01,2013-03-09 15:40:00,
2013-03-09 10:45:00,39.2,24.8,30.18,WSW,254,9.0,14.0,56,0.00,,---,0.00,VWS V14.01,2013-03-09 15:45:00,
2013-03-09 10:50:00,39.4,24.6,30.17,West,268,10.0,14.0,55,0.00,,---,0.00,VWS V14.01,2013-03-09 15:50:00,
2013-03-09 10:55:00,39.4,24.6,30.18,SW,227,8.0,14.0,55,0.00,,---,0.00,VWS V14.01,2013-03-09 15:55:00,
2013-03-09 11:00:00,40.1,24.8,30.17,NNW,335,3.0,14.0,54,0.00,,---,0.00,VWS V14.01,2013-03-09 16:00:00,
2013-03-09 11:05:00,40.9,25.1,30.17,WSW,240,5.0,5.0,53,0.00,,---,0.00,VWS V14.01,2013-03-09 16:05:00,
2013-03-09 11:10:00,41.5,24.7,30.17,WSW,248,3.0,11.0,51,0.00,,---,0.00,VWS V14.01,2013-03-09 16:10:00,
2013-03-09 11:15:00,41.7,24.9,30.17,West,259,11.0,15.0,51,0.00,,---,0.00,VWS V14.01,2013-03-09 16:15:00,
2013-03-09 11:20:00,40.9,23.7,30.17,WNW,296,3.0,15.0,50,0.00,,---,0.00,VWS V14.01,2013-03-09 16:20:00,
2013-03-09 11:25:00,41.1,24.8,30.17,WSW,252,6.0,15.0,52,0.00,,---,0.00,VWS V14.01,2013-03-09 16:25:00,
2013-03-09 11:30:00,40.5,24.7,30.17,NW,304,2.0,15.0,53,0.00,,---,0.00,VWS V14.01,2013-03-09 16:30:00,
2013-03-09 11:35:00,41.2,24.9,30.17,North,349,2.0,4.0,52,0.00,,---,0.00,VWS V14.01,2013-03-09 16:35:00,
2013-03-09 11:40:00,41.5,25.2,30.18,West,279,3.0,8.0,52,0.00,,---,0.00,VWS V14.01,2013-03-09 16:40:00,
2013-03-09 11:45:00,42.2,25.4,30.18,WNW,284,11.0,11.0,51,0.00,,---,0.00,VWS V14.01,2013-03-09 16:45:00,
2013-03-09 11:50:00,42.7,24.9,30.18,West,281,7.0,11.0,49,0.00,,---,0.00,VWS V14.01,2013-03-09 16:50:00,
2013-03-09 11:55:00,42.3,24.5,30.18,West,266,4.0,11.0,49,0.00,,---,0.00,VWS V14.01,2013-03-09 16:55:00,
2013-03-09 12:00:00,42.5,24.2,30.18,WSW,246,10.0,12.0,48,0.00,,---,0.00,VWS V14.01,2013-03-09 17:00:00,
2013-03-09 12:05:00,42.8,24.5,30.18,SSE,163,3.0,5.0,48,0.00,,---,0.00,VWS V14.01,2013-03-09 17:05:00,
2013-03-09 12:10:00,44.2,24.8,30.18,WNW,287,6.0,11.0,46,0.00,,---,0.00,VWS V14.01,2013-03-09 17:10:00,
2013-03-09 12:15:00,44.0,24.6,30.17,West,264,6.0,12.0,46,0.00,,---,0.00,VWS V14.01,2013-03-09 17:15:00,
2013-03-09 12:20:00,44.0,24.6,30.17,West,259,2.0,12.0,46,0.00,,---,0.00,VWS V14.01,2013-03-09 17:20:00,
2013-03-09 12:25:00,43.5,24.1,30.17,SW,217,6.0,12.0,46,0.00,,---,0.00,VWS V14.01,2013-03-09 17:25:00,
2013-03-09 12:30:00,43.9,23.4,30.17,WNW,287,5.0,12.0,44,0.00,,---,0.00,VWS V14.01,2013-03-09 17:30:00,
2013-03-09 12:35:00,44.0,24.0,30.17,West,277,5.0,7.0,45,0.00,,---,0.00,VWS V14.01,2013-03-09 17:35:00,
2013-03-09 12:40:00,44.4,24.4,30.17,WSW,238,8.0,8.0,45,0.00,,---,0.00,VWS V14.01,2013-03-09 17:40:00,
2013-03-09 12:45:00,44.9,24.9,30.16,West,265,3.0,11.0,45,0.00,,---,0.00,VWS V14.01,2013-03-09 17:45:00,
2013-03-09 12:50:00,44.8,24.2,30.16,WSW,258,8.0,11.0,44,0.00,,---,0.00,VWS V14.01,2013-03-09 17:50:00,
2013-03-09 12:55:00,44.2,25.8,30.16,WNW,293,1.0,11.0,48,0.00,,---,0.00,VWS V14.01,2013-03-09 17:55:00,
2013-03-09 13:00:00,45.6,26.5,30.16,NNW,338,1.0,11.0,47,0.00,,---,0.00,VWS V14.01,2013-03-09 18:00:00,
2013-03-09 13:05:00,45.6,24.4,30.16,SW,234,2.0,4.0,43,0.00,,---,0.00,VWS V14.01,2013-03-09 18:05:00,
2013-03-09 13:10:00,46.0,25.3,30.16,West,277,5.0,8.0,44,0.00,,---,0.00,VWS V14.01,2013-03-09 18:10:00,
2013-03-09 13:15:00,47.4,24.9,30.16,WSW,246,2.0,11.0,41,0.00,,---,0.00,VWS V14.01,2013-03-09 18:15:00,
2013-03-09 13:20:00,48.0,25.4,30.17,SW,226,6.0,11.0,41,0.00,,---,0.00,VWS V14.01,2013-03-09 18:20:00,
2013-03-09 13:25:00,47.2,23.5,30.17,West,259,7.0,14.0,39,0.00,,---,0.00,VWS V14.01,2013-03-09 18:25:00,
2013-03-09 13:30:00,46.7,24.3,30.17,SW,215,8.0,17.0,41,0.00,,---,0.00,VWS V14.01,2013-03-09 18:30:00,
2013-03-09 13:35:00,47.0,24.0,30.16,West,273,5.0,5.0,40,0.00,,---,0.00,VWS V14.01,2013-03-09 18:35:00,
2013-03-09 13:40:00,46.4,23.4,30.16,West,274,3.0,11.0,40,0.00,,---,0.00,VWS V14.01,2013-03-09 18:40:00,
2013-03-09 13:45:00,46.3,23.9,30.16,SSW,213,6.0,13.0,41,0.00,,---,0.00,VWS V14.01,2013-03-09 18:45:00,
2013-03-09 13:50:00,46.5,24.1,30.16,West,265,8.0,13.0,41,0.00,,---,0.00,VWS V14.01,2013-03-09 18:50:00,
2013-03-09 13:55:00,46.2,23.8,30.16,WSW,241,6.0,13.0,41,0.00,,---,0.00,VWS V14.01,2013-03-09 18:55:00,
2013-03-09 14:00:00,46.4,25.1,30.16,WNW,293,3.0,13.0,43,0.00,,---,0.00,VWS V14.01,2013-03-09 19:00:00,
2013-03-09 14:05:00,46.3,25.0,30.16,West,279,4.0,4.0,43,0.00,,---,0.00,VWS V14.01,2013-03-09 19:05:00,
2013-03-09 14:10:00,46.6,25.3,30.16,NNW,330,4.0,9.0,43,0.00,,---,0.00,VWS V14.01,2013-03-09 19:10:00,
2013-03-09 14:15:00,46.3,26.1,30.16,West,281,3.0,9.0,45,0.00,,---,0.00,VWS V14.01,2013-03-09 19:15:00,
2013-03-09 14:20:00,45.0,25.5,30.15,WSW,254,8.0,9.0,46,0.00,,---,0.00,VWS V14.01,2013-03-09 19:20:00,
2013-03-09 14:25:00,45.2,25.7,30.12,WNW,288,0.0,9.0,46,0.00,,---,0.00,VWS V14.01,2013-03-09 19:25:00,
2013-03-09 14:30:00,45.0,25.5,30.16,NW,322,5.0,9.0,46,0.00,,---,0.00,VWS V14.01,2013-03-09 19:30:00,
2013-03-09 14:35:00,44.4,25.5,30.10,NNW,343,2.0,2.0,47,0.00,,---,0.00,VWS V14.01,2013-03-09 19:35:00,
2013-03-09 14:40:00,44.4,26.5,30.16,West,264,3.0,8.0,49,0.00,,---,0.00,VWS V14.01,2013-03-09 19:40:00,
2013-03-09 14:45:00,43.6,25.2,30.13,WNW,298,7.0,12.0,48,0.00,,---,0.00,VWS V14.01,2013-03-09 19:45:00,
2013-03-09 14:50:00,43.3,25.4,30.14,NW,309,7.0,12.0,49,0.00,,---,0.00,VWS V14.01,2013-03-09 19:50:00,
2013-03-09 14:55:00,43.5,25.6,30.15,WNW,293,5.0,12.0,49,0.00,,---,0.00,VWS V14.01,2013-03-09 19:55:00,
2013-03-09 15:00:00,43.2,25.4,30.16,WNW,294,4.0,12.0,49,0.00,,---,0.00,VWS V14.01,2013-03-09 20:00:00,
2013-03-09 15:05:00,43.1,25.3,30.16,NNW,345,1.0,2.0,49,0.00,,---,0.00,VWS V14.01,2013-03-09 20:05:00,
2013-03-09 15:10:00,43.0,25.2,30.16,West,260,1.0,8.0,49,0.00,,---,0.00,VWS V14.01,2013-03-09 20:10:00,
2013-03-09 15:15:00,43.3,25.4,30.17,NW,321,2.0,10.0,49,0.00,,---,0.00,VWS V14.01,2013-03-09 20:15:00,
2013-03-09 15:20:00,42.8,25.0,30.17,WNW,296,2.0,10.0,49,0.00,,---,0.00,VWS V14.01,2013-03-09 20:20:00,
2013-03-09 15:25:00,42.5,25.2,30.17,North,355,3.0,10.0,50,0.00,,---,0.00,VWS V14.01,2013-03-09 20:25:00,
2013-03-09 15:30:00,42.4,25.1,30.17,WNW,286,8.0,10.0,50,0.00,,---,0.00,VWS V14.01,2013-03-09 20:30:00,
2013-03-09 15:35:00,42.4,25.1,30.17,WNW,294,3.0,9.0,50,0.00,,---,0.00,VWS V14.01,2013-03-09 20:35:00,
2013-03-09 15:40:00,42.0,24.7,30.17,West,260,3.0,10.0,50,0.00,,---,0.00,VWS V14.01,2013-03-09 20:40:00,
2013-03-09 15:45:00,41.9,24.6,30.17,WNW,289,5.0,10.0,50,0.00,,---,0.00,VWS V14.01,2013-03-09 20:45:00,
2013-03-09 15:50:00,41.7,24.5,30.17,NNW,347,8.0,10.0,50,0.00,,---,0.00,VWS V14.01,2013-03-09 20:50:00,
2013-03-09 15:55:00,41.6,24.8,30.17,WSW,255,5.0,10.0,51,0.00,,---,0.00,VWS V14.01,2013-03-09 20:55:00,
2013-03-09 16:00:00,41.5,24.3,30.17,WNW,298,4.0,13.0,50,0.00,,---,0.00,VWS V14.01,2013-03-09 21:00:00,
2013-03-09 16:05:00,41.7,24.9,30.18,West,277,3.0,3.0,51,0.00,,---,0.00,VWS V14.01,2013-03-09 21:05:00,
2013-03-09 16:10:00,41.9,24.6,30.18,WNW,299,7.0,9.0,50,0.00,,---,0.00,VWS V14.01,2013-03-09 21:10:00,
2013-03-09 16:15:00,42.0,25.2,30.18,WSW,248,4.0,10.0,51,0.00,,---,0.00,VWS V14.01,2013-03-09 21:15:00,
2013-03-09 16:20:00,41.9,24.6,30.18,North,355,2.0,10.0,50,0.00,,---,0.00,VWS V14.01,2013-03-09 21:20:00,
2013-03-09 16:25:00,41.6,24.4,30.18,NW,312,5.0,11.0,50,0.00,,---,0.00,VWS V14.01,2013-03-09 21:25:00,
2013-03-09 16:30:00,41.4,24.6,30.18,West,281,4.0,11.0,51,0.00,,---,0.00,VWS V14.01,2013-03-09 21:30:00,
2013-03-09 16:35:00,41.5,24.3,30.19,NNW,347,3.0,4.0,50,0.00,,---,0.00,VWS V14.01,2013-03-09 21:35:00,
2013-03-09 16:40:00,41.4,24.6,30.19,WSW,242,3.0,8.0,51,0.00,,---,0.00,VWS V14.01,2013-03-09 21:40:00,
2013-03-09 16:45:00,41.3,24.5,30.19,West,263,3.0,8.0,51,0.00,,---,0.00,VWS V14.01,2013-03-09 21:45:00,
2013-03-09 16:50:00,41.0,24.3,30.19,NNW,346,2.0,8.0,51,0.00,,---,0.00,VWS V14.01,2013-03-09 21:50:00,
2013-03-09 16:55:00,40.9,24.6,30.20,NW,323,2.0,8.0,52,0.00,,---,0.00,VWS V14.01,2013-03-09 21:55:00,
2013-03-09 17:00:00,40.8,24.1,30.20,WNW,285,2.0,8.0,51,0.00,,---,0.00,VWS V14.01,2013-03-09 22:00:00,
2013-03-09 17:05:00,40.7,24.5,30.20,West,267,5.0,5.0,52,0.00,,---,0.00,VWS V14.01,2013-03-09 22:05:00,
2013-03-09 17:10:00,40.3,24.1,30.20,NW,323,2.0,7.0,52,0.00,,---,0.00,VWS V14.01,2013-03-09 22:10:00,
2013-03-09 17:15:00,40.0,24.3,30.21,WNW,285,3.0,7.0,53,0.00,,---,0.00,VWS V14.01,2013-03-09 22:15:00,
2013-03-09 17:20:00,39.7,24.0,30.21,West,259,3.0,7.0,53,0.00,,---,0.00,VWS V14.01,2013-03-09 22:20:00,
2013-03-09 17:25:00,39.3,24.1,30.21,West,267,2.0,7.0,54,0.00,,---,0.00,VWS V14.01,2013-03-09 22:25:00,
2013-03-09 17:30:00,39.0,23.8,30.22,NW,304,1.0,7.0,54,0.00,,---,0.00,VWS V14.01,2013-03-09 22:30:00,
2013-03-09 17:35:00,38.7,23.9,30.22,NW,304,2.0,2.0,55,0.00,,---,0.00,VWS V14.01,2013-03-09 22:35:00,
2013-03-09 17:40:00,38.5,23.8,30.22,West,269,1.0,6.0,55,0.00,,---,0.00,VWS V14.01,2013-03-09 22:40:00,
2013-03-09 17:45:00,38.2,23.5,30.22,WNW,290,1.0,6.0,55,0.00,,---,0.00,VWS V14.01,2013-03-09 22:45:00,
2013-03-09 17:50:00,38.1,23.4,30.22,WNW,290,1.0,6.0,55,0.00,,---,0.00,VWS V14.01,2013-03-09 22:50:00,
2013-03-09 17:55:00,37.8,23.5,30.23,WNW,290,0.0,6.0,56,0.00,,---,0.00,VWS V14.01,2013-03-09 22:55:00,
2013-03-09 18:00:00,37.6,23.3,30.23,WNW,290,1.0,6.0,56,0.00,,---,0.00,VWS V14.01,2013-03-09 23:00:00,
2013-03-09 18:05:00,37.3,23.5,30.23,West,277,2.0,4.0,57,0.00,,---,0.00,VWS V14.01,2013-03-09 23:05:00,
2013-03-09 18:10:00,36.9,23.1,30.23,West,259,3.0,6.0,57,0.00,,---,0.00,VWS V14.01,2013-03-09 23:10:00,
2013-03-09 18:15:00,36.7,23.3,30.23,WNW,286,2.0,6.0,58,0.00,,---,0.00,VWS V14.01,2013-03-09 23:15:00,
2013-03-09 18:20:00,36.5,23.1,30.24,West,266,1.0,6.0,58,0.00,,---,0.00,VWS V14.01,2013-03-09 23:20:00,
2013-03-09 18:25:00,36.3,23.0,30.24,West,265,1.0,6.0,58,0.00,,---,0.00,VWS V14.01,2013-03-09 23:25:00,
2013-03-09 18:30:00,36.1,23.2,30.24,West,265,2.0,6.0,59,0.00,,---,0.00,VWS V14.01,2013-03-09 23:30:00,
2013-03-09 18:35:00,35.9,23.4,30.24,West,265,2.0,2.0,60,0.00,,---,0.00,VWS V14.01,2013-03-09 23:35:00,
2013-03-09 18:40:00,35.7,23.2,30.24,West,265,1.0,2.0,60,0.00,,---,0.00,VWS V14.01,2013-03-09 23:40:00,
2013-03-09 18:45:00,35.5,23.0,30.24,West,265,1.0,4.0,60,0.00,,---,0.00,VWS V14.01,2013-03-09 23:45:00,
2013-03-09 18:50:00,35.5,23.0,30.25,West,265,1.0,4.0,60,0.00,,---,0.00,VWS V14.01,2013-03-09 23:50:00,
2013-03-09 18:55:00,35.3,22.8,30.25,West,265,0.0,4.0,60,0.00,,---,0.00,VWS V14.01,2013-03-09 23:55:00,
2013-03-09 19:00:00,35.1,22.6,30.25,West,265,0.0,4.0,60,0.00,,---,0.00,VWS V14.01,2013-03-10 00:00:00,
2013-03-09 19:05:00,35.0,22.5,30.25,West,265,0.0,0.0,60,0.00,,---,0.00,VWS V14.01,2013-03-10 00:05:00,
2013-03-09 19:10:00,34.8,22.7,30.25,West,265,0.0,0.0,61,0.00,,---,0.00,VWS V14.01,2013-03-10 00:10:00,
2013-03-09 19:15:00,34.7,22.6,30.25,West,265,0.0,2.0,61,0.00,,---,0.00,VWS V14.01,2013-03-10 00:15:00,
2013-03-09 19:20:00,34.8,23.1,30.25,West,265,0.0,3.0,62,0.00,,---,0.00,VWS V14.01,2013-03-10 00:20:00,
2013-03-09 19:25:00,34.7,22.6,30.26,West,265,0.0,3.0,61,0.00,,---,0.00,VWS V14.01,2013-03-10 00:25:00,
2013-03-09 19:30:00,34.6,22.9,30.26,West,265,0.0,3.0,62,0.00,,---,0.00,VWS V14.01,2013-03-10 00:30:00,
2013-03-09 19:35:00,34.5,22.8,30.26,NNE,33,0.0,1.0,62,0.00,,---,0.00,VWS V14.01,2013-03-10 00:35:00,
2013-03-09 19:40:00,34.5,23.2,30.26,WNW,288,0.0,3.0,63,0.00,,---,0.00,VWS V14.01,2013-03-10 00:40:00,
2013-03-09 19:45:00,34.2,23.7,30.26,West,275,1.0,7.0,65,0.00,,---,0.00,VWS V14.01,2013-03-10 00:45:00,
2013-03-09 19:50:00,34.2,24.0,30.26,West,276,2.0,7.0,66,0.00,,---,0.00,VWS V14.01,2013-03-10 00:50:00,
2013-03-09 19:55:00,34.1,24.0,30.26,WNW,288,0.0,7.0,66,0.00,,---,0.00,VWS V14.01,2013-03-10 00:55:00,
2013-03-09 20:00:00,34.3,24.1,30.26,WNW,288,3.0,7.0,66,0.00,,---,0.00,VWS V14.01,2013-03-10 01:00:00,
2013-03-09 20:05:00,34.3,24.5,30.26,WNW,295,0.0,0.0,67,0.00,,---,0.00,VWS V14.01,2013-03-10 01:05:00,
2013-03-09 20:10:00,34.1,24.3,30.26,WSW,243,0.0,4.0,67,0.00,,---,0.00,VWS V14.01,2013-03-10 01:10:00,
2013-03-09 20:15:00,34.1,24.3,30.26,WNW,288,2.0,6.0,67,0.00,,---,0.00,VWS V14.01,2013-03-10 01:15:00,
2013-03-09 20:20:00,34.2,24.4,30.26,West,263,4.0,6.0,67,0.00,,---,0.00,VWS V14.01,2013-03-10 01:20:00,
2013-03-09 20:25:00,34.0,24.6,30.26,NW,309,2.0,7.0,68,0.00,,---,0.00,VWS V14.01,2013-03-10 01:25:00,
2013-03-09 20:30:00,33.8,24.4,30.26,West,267,2.0,7.0,68,0.00,,---,0.00,VWS V14.01,2013-03-10 01:30:00,
2013-03-09 20:35:00,33.7,24.6,30.26,NW,316,1.0,1.0,69,0.00,,---,0.00,VWS V14.01,2013-03-10 01:35:00,
2013-03-09 20:40:00,33.6,24.9,30.26,West,259,1.0,6.0,70,0.00,,---,0.00,VWS V14.01,2013-03-10 01:40:00,
2013-03-09 20:45:00,33.6,24.9,30.26,WNW,286,2.0,6.0,70,0.00,,---,0.00,VWS V14.01,2013-03-10 01:45:00,
2013-03-09 20:50:00,33.6,24.9,30.27,West,272,0.0,6.0,70,0.00,,---,0.00,VWS V14.01,2013-03-10 01:50:00,
2013-03-09 20:55:00,33.4,24.7,30.27,WNW,286,1.0,6.0,70,0.00,,---,0.00,VWS V14.01,2013-03-10 01:55:00,
2013-03-09 21:00:00,33.3,24.9,30.27,West,263,3.0,6.0,71,0.00,,---,0.00,VWS V14.01,2013-03-10 02:00:00,
2013-03-09 21:05:00,33.1,25.1,30.26,NW,322,0.0,1.0,72,0.00,,---,0.00,VWS V14.01,2013-03-10 02:05:00,
2013-03-09 21:10:00,32.9,24.9,30.26,West,281,2.0,3.0,72,0.00,,---,0.00,VWS V14.01,2013-03-10 02:10:00,
2013-03-09 21:15:00,32.7,25.0,30.27,WSW,256,1.0,5.0,73,0.00,,---,0.00,VWS V14.01,2013-03-10 02:15:00,
2013-03-09 21:20:00,32.3,24.6,30.27,West,275,1.0,5.0,73,0.00,,---,0.00,VWS V14.01,2013-03-10 02:20:00,
2013-03-09 21:25:00,31.9,24.6,30.26,West,279,3.0,6.0,74,0.00,,---,0.00,VWS V14.01,2013-03-10 02:25:00,
2013-03-09 21:30:00,31.8,24.5,30.27,West,268,3.0,6.0,74,0.00,,---,0.00,VWS V14.01,2013-03-10 02:30:00,
2013-03-09 21:35:00,31.9,24.9,30.27,West,277,3.0,3.0,75,0.00,,---,0.00,VWS V14.01,2013-03-10 02:35:00,
2013-03-09 21:40:00,32.0,24.7,30.27,West,265,2.0,5.0,74,0.00,,---,0.00,VWS V14.01,2013-03-10 02:40:00,
2013-03-09 21:45:00,32.0,24.7,30.27,West,275,3.0,6.0,74,0.00,,---,0.00,VWS V14.01,2013-03-10 02:45:00,
2013-03-09 21:50:00,31.9,24.6,30.27,NW,304,1.0,6.0,74,0.00,,---,0.00,VWS V14.01,2013-03-10 02:50:00,
2013-03-09 21:55:00,31.7,24.4,30.27,West,279,5.0,6.0,74,0.00,,---,0.00,VWS V14.01,2013-03-10 02:55:00,
2013-03-09 22:00:00,31.7,24.4,30.28,West,273,6.0,9.0,74,0.00,,---,0.00,VWS V14.01,2013-03-10 03:00:00,
2013-03-09 22:05:00,31.7,24.7,30.27,WNW,287,2.0,9.0,75,0.00,,---,0.00,VWS V14.01,2013-03-10 03:05:00,
2013-03-09 22:09:00,31.4,24.4,30.27,WNW,283,1.0,4.0,75,0.00,,---,0.00,VWS V14.01,2013-03-10 03:09:00,
2013-03-09 22:15:00,31.1,24.1,30.27,West,261,3.0,4.0,75,0.00,,---,0.00,VWS V14.01,2013-03-10 03:15:00,
2013-03-09 22:20:00,31.0,24.3,30.27,WNW,296,0.0,7.0,76,0.00,,---,0.00,VWS V14.01,2013-03-10 03:20:00,
2013-03-09 22:25:00,31.0,24.3,30.28,WNW,289,1.0,7.0,76,0.00,,---,0.00,VWS V14.01,2013-03-10 03:25:00,
2013-03-09 22:30:00,30.9,24.5,30.28,WNW,286,1.0,7.0,77,0.00,,---,0.00,VWS V14.01,2013-03-10 03:30:00,
2013-03-09 22:35:00,30.8,24.5,30.28,WSW,251,2.0,2.0,77,0.00,,---,0.00,VWS V14.01,2013-03-10 03:35:00,
2013-03-09 22:40:00,30.6,24.3,30.29,West,278,2.0,6.0,77,0.00,,---,0.00,VWS V14.01,2013-03-10 03:40:00,
2013-03-09 22:45:00,30.6,24.3,30.28,West,265,2.0,6.0,77,0.00,,---,0.00,VWS V14.01,2013-03-10 03:45:00,
2013-03-09 22:50:00,30.6,24.6,30.28,West,269,1.0,6.0,78,0.00,,---,0.00,VWS V14.01,2013-03-10 03:50:00,
2013-03-09 22:55:00,30.6,24.3,30.28,West,265,2.0,6.0,77,0.00,,---,0.00,VWS V14.01,2013-03-10 03:55:00,
2013-03-09 23:00:00,30.5,24.2,30.28,West,275,4.0,6.0,77,0.00,,---,0.00,VWS V14.01,2013-03-10 04:00:00,
2013-03-09 23:05:00,30.4,24.4,30.28,West,276,1.0,6.0,78,0.00,,---,0.00,VWS V14.01,2013-03-10 04:05:00,
2013-03-09 23:10:00,30.4,24.4,30.28,NW,311,3.0,6.0,78,0.00,,---,0.00,VWS V14.01,2013-03-10 04:10:00,
2013-03-09 23:14:00,30.5,24.5,30.28,NW,324,0.0,7.0,78,0.00,,---,0.00,VWS V14.01,2013-03-10 04:14:00,
2013-03-09 23:19:00,30.4,24.4,30.28,WNW,298,1.0,7.0,78,0.00,,---,0.00,VWS V14.01,2013-03-10 04:19:00,
2013-03-09 23:24:00,30.3,24.3,30.28,West,281,2.0,7.0,78,0.00,,---,0.00,VWS V14.01,2013-03-10 04:24:00,
2013-03-09 23:29:00,30.2,24.2,30.28,WNW,299,2.0,9.0,78,0.00,,---,0.00,VWS V14.01,2013-03-10 04:29:00,
2013-03-09 23:30:00,30.2,24.2,30.28,West,263,1.0,9.0,78,0.00,,---,0.00,VWS V14.01,2013-03-10 04:30:00,
2013-03-09 23:34:00,30.2,24.2,30.28,West,263,1.0,9.0,78,0.00,,---,0.00,VWS V14.01,2013-03-10 04:34:00,
2013-03-09 23:39:00,30.1,24.4,30.28,West,277,0.0,4.0,79,0.00,,---,0.00,VWS V14.01,2013-03-10 04:39:00,
2013-03-09 23:44:00,29.9,24.2,30.28,WNW,294,1.0,5.0,79,0.00,,---,0.00,VWS V14.01,2013-03-10 04:44:00,
2013-03-09 23:49:00,29.7,24.3,30.28,NNW,327,0.0,5.0,80,0.00,,---,0.00,VWS V14.01,2013-03-10 04:49:00,
2013-03-09 23:54:00,29.5,24.1,30.28,NW,306,3.0,5.0,80,0.00,,---,0.00,VWS V14.01,2013-03-10 04:54:00,
2013-03-09 23:59:00,29.4,24.3,30.28,West,268,3.0,8.0,81,0.00,,---,0.00,VWS V14.01,2013-03-10 04:59:00,